Waarnemingen

Advertentie
Mijn weer
Barth, Duitsland (10180): temperatuur & dauwpunt: 22.06.2017 05:00:00 - 28.06.2017 05:00:00 (CEST)Barth, Duitsland (10180): temperatuur 5cm & temperatuur -5cm: 22.06.2017 05:00:00 - 28.06.2017 05:00:00 (CEST)Barth, Duitsland (10180): temperatuur -20cm & temperatuur -100cm: 22.06.2017 05:00:00 - 28.06.2017 05:00:00 (CEST)Barth, Duitsland (10180): windsnelheid & windstoten: 22.06.2017 05:00:00 - 28.06.2017 05:00:00 (CEST)Barth, Duitsland (10180): windrichting: 22.06.2017 05:00:00 - 28.06.2017 05:00:00 (CEST)Barth, Duitsland (10180): luchtdruk: 22.06.2017 05:00:00 - 28.06.2017 05:00:00 (CEST)Barth, Duitsland (10180): zicht: 22.06.2017 05:00:00 - 28.06.2017 05:00:00 (CEST)Barth, Duitsland (10180): Zonneschijnduur: 22.06.2017 05:00:00 - 28.06.2017 05:00:00 (CEST)Barth, Duitsland (10180): neerslag: 22.06.2017 05:00:00 - 28.06.2017 05:00:00 (CEST)
Datum & Tijd tt [°C] td [°C] tt 5cm [°C] tt -5cm [°C] tt -20cm [°C] tt -100cm [°C] ff [km/u] ff [kn] fx [km/u] fx [kn] dd ppp [hPa] vv [km] sd [min] rr [mm]
28.06.2017 05:00:00 11,1 10,1 9,9 12,4 15,9 14,5 8 4 13 7 O 1008,2 14 0 0,0
28.06.2017 04:00:00 10,6 9,7 9,3 12,5 16,2 14,5 9 5 11 6 ONO 1008,5 12 0 0,0
28.06.2017 03:00:00 12,0 10,3 11,5 13,2 16,5 14,6 8 5 17 9 OZO 1009,1 24 0 0,0
28.06.2017 02:00:00 11,5 9,8 10,6 13,3 16,9 14,6 9 5 15 8 O 1009,6 31 0 0,0
28.06.2017 01:00:00 11,2 9,8 10,3 13,7 17,3 14,6 8 5 13 7 O 1010,3 26 0 0,0
28.06.2017 00:00:00 10,9 9,7 10,1 14,1 17,7 14,6 10 5 12 7 O 1010,4 17 0 0,0
27.06.2017 23:00:00 10,6 9,3 9,3 14,8 18,2 14,6 7 4 14 8 O 1011,1 12 0 0,0
27.06.2017 22:00:00 11,2 8,9 9,3 15,8 18,7 14,6 9 5 13 7 O 1011,1 15 0 0,0
27.06.2017 21:00:00 13,6 9,1 12,3 17,7 19,1 14,6 6 3 18 10 ONO 1011,1 18 38 0,0
27.06.2017 20:00:00 15,3 8,1 16,0 20,1 19,3 14,6 14 8 22 12 ONO 1011,2 17 60 0,0
27.06.2017 19:00:00 16,5 8,6 18,0 22,4 19,3 14,6 11 6 22 12 N 1011,4 16 60 0,0
27.06.2017 18:00:00 17,2 7,9 19,7 25,0 18,9 14,6 6 4 14 7 NW 1011,9 19 60 0,0
27.06.2017 17:00:00 17,5 8,1 21,4 26,3 18,3 14,6 8 5 19 11 W 1012,4 21 60 0,0
27.06.2017 16:00:00 17,0 7,7 21,4 25,7 17,7 14,6 13 7 26 14 WNW 1013,1 14 60 0,0
27.06.2017 15:00:00 16,3 7,1 21,5 25,1 17,0 14,6 16 8 29 16 WNW 1013,3 20 59 0,0
27.06.2017 14:00:00 16,7 8,4 21,8 23,7 16,3 14,6 17 9 29 16 WNW 1013,5 17 56 0,0
27.06.2017 13:00:00 15,9 7,7 20,1 21,6 15,7 14,6 16 8 30 16 W 1013,7 19 40 0,0
27.06.2017 12:00:00 15,5 7,6 18,5 19,1 15,3 14,6 18 10 29 15 WNW 1013,7 18 15 0,0
27.06.2017 11:00:00 15,1 7,9 18,1 18,0 14,9 14,6 19 11 29 15 W 1013,7 21 10 0,0
27.06.2017 10:00:00 14,6 6,7 17,1 17,0 14,6 14,6 17 9 25 13 WNW 1013,7 28 12 0,0
27.06.2017 09:00:00 14,4 8,3 16,3 15,4 14,3 14,6 17 9 27 15 WNW 1013,5 24 28 0,0
27.06.2017 08:00:00 14,0 8,3 16,4 13,8 14,2 14,6 13 7 24 13 W 1013,3 21 29 0,0
27.06.2017 07:00:00 13,8 8,0 15,7 13,3 14,3 14,6 11 6 22 12 NW 1012,9 13 60 0,0
27.06.2017 06:00:00 11,9 7,5 11,7 10,8 14,5 14,6 10 5 16 8 WNW 1012,7 17 48 0,0
27.06.2017 05:00:00 11,1 7,5 8,6 10,4 14,7 14,7 8 5 22 12 WNW 1012,5 27 0 0,0
27.06.2017 04:00:00 11,7 8,4 10,2 11,1 15,0 14,7 8 5 22 12 W 1012,7 25 0 0,0
27.06.2017 03:00:00 11,7 8,2 9,5 11,0 15,3 14,7 11 6 22 12 W 1012,7 25 0 0,0
27.06.2017 02:00:00 12,7 8,4 11,0 11,6 15,7 14,7 13 7 24 13 WNW 1012,5 28 0 0,0
27.06.2017 01:00:00 12,8 8,6 10,9 11,6 16,1 14,7 15 8 27 15 W 1012,2 25 0 0,0
27.06.2017 00:00:00 13,3 8,6 11,5 12,1 16,5 14,7 16 9 29 16 WNW 1011,9 27 0 0,0
26.06.2017 23:00:00 13,8 8,1 12,1 12,6 17,0 14,7 18 10 34 18 WNW 1011,6 29 0 0,0
26.06.2017 22:00:00 14,1 9,5 12,5 13,7 17,4 14,7 17 9 39 21 W 1011,8 28 30 0,0
26.06.2017 21:00:00 15,1 8,4 14,1 15,1 17,8 14,7 22 12 44 24 WNW 1011,4 20 60 0,0
26.06.2017 20:00:00 16,3 9,5 16,4 17,0 18,0 14,7 27 15 48 26 W 1011,2 15 60 0,0
26.06.2017 19:00:00 16,9 9,5 17,6 18,8 18,1 14,7 28 15 48 26 W 1011,0 14 60 0,0
26.06.2017 18:00:00 17,3 9,3 18,6 20,0 18,0 14,7 30 16 48 26 W 1010,7 15 60 0,0
26.06.2017 17:00:00 17,4 9,4 19,0 20,7 17,9 14,7 29 15 53 29 W 1010,5 16 48 0,0
26.06.2017 16:00:00 17,8 9,1 20,3 22,0 17,5 14,7 31 17 48 26 W 1010,1 11 60 0,0
26.06.2017 15:00:00 17,8 9,6 20,6 21,8 17,1 14,7 33 18 51 28 W 1010,0 13 57 0,0
26.06.2017 14:00:00 17,9 8,8 21,0 22,1 16,6 14,7 36 19 56 30 W 1009,5 10 60 0,0
26.06.2017 13:00:00 17,9 9,4 21,4 21,5 16,1 14,7 35 19 55 30 W 1009,3 12 53 0,0
26.06.2017 12:00:00 16,2 9,3 18,0 19,4 15,7 14,7 31 17 55 30 W 1008,9 20 45 0,0
26.06.2017 11:00:00 16,7 10,3 19,3 19,1 15,3 14,8 31 17 50 27 W 1008,4 15 43 0,0
26.06.2017 10:00:00 15,9 10,0 17,7 18,0 15,0 14,8 30 16 50 27 W 1007,9 19 40 0,0
26.06.2017 09:00:00 15,7 9,7 18,0 16,3 14,7 14,8 28 15 45 25 W 1007,7 14 51 0,0
26.06.2017 08:00:00 15,0 9,5 16,9 14,7 14,7 14,8 26 14 41 22 W 1007,4 14 49 0,0
26.06.2017 07:00:00 14,2 9,5 14,8 13,5 14,8 14,8 16 9 28 15 W 1007,1 9 59 0,0
26.06.2017 06:00:00 13,1 9,1 12,7 11,8 15,0 14,8 20 11 34 18 W 1007,3 13 14 0,0
26.06.2017 05:00:00 12,8 8,9 11,4 11,8 15,2 14,8 22 12 40 21 W 1007,0 26 0 0,0
26.06.2017 04:00:00 12,9 11,2 12,3 12,5 15,4 14,8 16 9 40 22 ZW 1007,3 20 0 0,0
26.06.2017 03:00:00 13,2 10,5 11,7 12,6 15,6 14,8 19 10 32 18 WZW 1007,1 22 0 0,2
26.06.2017 02:00:00 13,6 10,0 11,8 12,6 15,9 14,8 21 11 39 21 W 1007,3 6 0 0,0
26.06.2017 01:00:00 13,5 9,7 12,2 12,8 16,3 14,8 18 10 37 20 WZW 1007,3 25 0 0,0
26.06.2017 00:00:00 14,4 9,4 13,5 13,5 16,6 14,8 22 12 42 23 WZW 1007,5 29 0 0,0
25.06.2017 23:00:00 14,8 9,5 13,9 14,1 16,9 14,8 22 12 36 19 WZW 1007,6 27 0 0,0
25.06.2017 22:00:00 15,1 10,2 14,4 14,7 17,2 14,8 18 10 39 21 W 1007,5 25 0 0,0
25.06.2017 21:00:00 15,2 10,5 14,1 15,3 17,5 14,8 28 15 43 23 W 1007,3 16 0 0,0
25.06.2017 20:00:00 16,2 11,4 16,1 16,7 17,7 14,9 19 11 33 18 W 1007,1 26 0 0,0
25.06.2017 19:00:00 16,7 12,1 17,1 18,0 17,8 14,9 24 13 42 23 W 1007,0 29 5 0,0
25.06.2017 18:00:00 17,3 11,7 18,0 19,0 17,9 14,9 21 11 43 23 W 1006,9 28 1 0,0
25.06.2017 17:00:00 19,0 12,5 21,3 20,8 17,7 14,9 22 12 45 24 W 1007,0 26 36 0,0
25.06.2017 16:00:00 18,7 12,3 21,1 20,4 17,6 14,9 25 14 47 26 W 1006,9 28 7 0,0
25.06.2017 15:00:00 18,3 12,5 19,1 20,3 17,3 14,9 34 19 54 29 W 1006,4 22 17 0,0
25.06.2017 14:00:00 19,7 12,4 22,6 22,9 16,7 14,9 33 18 49 27 WZW 1006,0 23 52 0,0
25.06.2017 13:00:00 19,5 12,5 22,5 22,8 16,1 14,9 31 17 46 25 W 1005,9 17 42 0,0
25.06.2017 12:00:00 18,3 12,8 20,6 21,0 15,6 14,9 22 12 37 20 WZW 1005,8 21 21 0,0
25.06.2017 11:00:00 15,9 14,6 16,1 17,2 15,4 14,9 22 12 33 18 WZW 1005,5 12 0 0,5
25.06.2017 10:00:00 14,9 14,4 15,2 15,6 15,3 14,9 11 6 23 12 W 1005,2 3,9 0 6,2
25.06.2017 09:00:00 14,7 14,3 14,9 15,0 15,4 14,9 7 4 13 7 Z 1005,0 4,7 0 4,7
25.06.2017 08:00:00 13,8 13,5 13,8 14,4 15,4 14,9 11 6 28 15 ZZW 1005,9 0,9 0 3,9
25.06.2017 07:00:00 13,8 12,7 13,7 14,5 15,4 14,9 12 6 25 14 Z 1006,3 18 6 0,0
25.06.2017 06:00:00 13,3 12,8 13,2 13,9 15,5 14,9 15 8 24 13 ZZW 1007,2 12 0 0,1
25.06.2017 05:00:00 13,3 12,3 13,1 13,6 15,6 14,9 12 6 19 10 ZZW 1007,7 19 0 0,0
25.06.2017 04:00:00 13,5 11,9 13,1 13,6 15,7 14,9 12 6 18 10 ZZW 1008,2 22 0 0,0
25.06.2017 03:00:00 13,9 11,7 13,3 13,6 15,9 14,9 11 6 18 10 ZW 1008,7 26 0 0,0
25.06.2017 02:00:00 13,8 11,2 13,1 13,7 16,1 14,9 10 5 23 13 ZW 1009,3 32 0 0,0
25.06.2017 01:00:00 14,2 11,1 13,3 13,6 16,3 15,0 16 9 33 18 WZW 1009,6 14 0 0,0
25.06.2017 00:00:00 14,1 10,5 12,8 13,3 16,7 15,0 14 8 29 16 WZW 1009,6 27 0 0,0
24.06.2017 23:00:00 14,7 10,4 13,2 13,6 17,0 15,0 23 12 43 23 W 1009,5 30 0 0,0
24.06.2017 22:00:00 15,4 11,2 13,9 14,8 17,3 15,0 25 14 45 24 W 1009,5 37 31 0,0
24.06.2017 21:00:00 16,2 12,5 15,3 16,3 17,5 15,0 23 12 35 19 W 1009,1 37 32 0,0
24.06.2017 20:00:00 16,4 13,6 16,1 17,4 17,5 15,0 19 10 50 27 W 1008,9 36 19 0,0
24.06.2017 19:00:00 17,6 14,6 17,0 18,5 17,4 15,0 29 15 47 25 W 1008,2 24 17 0,0
24.06.2017 18:00:00 17,1 15,7 17,1 18,0 17,4 15,0 30 16 46 25 WZW 1007,9 11 0 0,7
24.06.2017 17:00:00 17,0 16,0 16,9 17,9 17,4 15,0 18 10 42 23 WZW 1008,0 7 0 0,5
24.06.2017 16:00:00 17,1 15,9 16,8 18,0 17,3 15,0 21 12 35 19 W 1008,2 5 0 0,8
24.06.2017 15:00:00 17,4 16,2 17,2 18,2 17,3 15,0 19 11 33 18 WZW 1008,3 2,7 0 0,2
24.06.2017 14:00:00 17,9 16,2 17,6 19,0 17,1 15,0 18 10 34 19 WZW 1008,0 14 0 0,4
24.06.2017 13:00:00 17,0 16,3 17,2 18,7 16,9 15,0 16 9 39 21 ZW 1008,6 2,7 1 0,4
24.06.2017 12:00:00 17,9 15,7 19,3 18,6 16,6 15,0 23 13 36 19 ZW 1008,5 15 0 0,0
24.06.2017 11:00:00 17,5 15,7 18,4 17,9 16,5 15,0 18 10 34 18 ZW 1008,6 14 0 0,0
24.06.2017 10:00:00 16,9 15,1 17,2 16,9 16,4 15,0 16 9 27 14 ZW 1008,8 15 0 0,0
24.06.2017 09:00:00 16,2 14,6 16,3 16,2 16,4 15,0 14 8 28 15 ZW 1009,1 10 0 0,0
24.06.2017 08:00:00 15,9 14,3 15,9 16,0 16,3 15,0 17 9 29 16 ZW 1009,2 11 0 0,0
24.06.2017 07:00:00 15,5 14,2 15,4 15,5 16,4 15,0 16 9 28 15 ZW 1009,4 10 0 0,0
24.06.2017 06:00:00 15,2 14,0 14,9 15,2 16,4 15,0 16 9 28 15 ZW 1009,8 9 0 0,0
24.06.2017 05:00:00 15,2 13,9 14,8 15,1 16,5 15,0 15 8 38 20 ZW 1010,0 10 0 0,0
24.06.2017 04:00:00 15,6 13,6 14,8 14,9 16,6 15,0 22 12 37 20 W 1010,2 16 0 0,0
24.06.2017 03:00:00 15,2 13,5 14,5 14,8 16,8 15,0 23 12 38 20 WZW 1010,5 14 0 0,0
24.06.2017 02:00:00 14,7 13,5 14,0 14,8 16,9 15,0 16 9 22 12 WZW 1010,7 13 0 0,0
24.06.2017 01:00:00 14,6 13,8 14,0 15,0 17,1 15,0 12 6 23 12 ZW 1011,2 8 0 0,0
24.06.2017 00:00:00 14,9 13,7 14,2 15,2 17,3 15,0 16 9 23 13 W 1011,6 7 0 0,4
23.06.2017 23:00:00 15,3 13,3 14,5 15,2 17,6 15,0 20 11 41 22 W 1011,9 13 0 0,0
23.06.2017 22:00:00 15,7 12,3 15,0 15,3 17,8 15,0 26 14 48 26 W 1011,9 24 0 0,0
23.06.2017 21:00:00 16,6 12,4 16,0 16,2 18,0 15,0 24 13 52 28 W 1011,4 28 0 0,0
23.06.2017 20:00:00 17,7 14,0 17,5 17,7 18,1 15,0 24 13 38 20 W 1011,2 24 0 0,0
23.06.2017 19:00:00 17,9 14,3 18,1 18,5 18,0 15,0 27 14 56 30 W 1010,8 21 1 0,0
23.06.2017 18:00:00 18,3 14,6 19,0 19,6 17,9 15,0 35 19 55 30 W 1010,6 17 9 0,0
23.06.2017 17:00:00 17,2 15,0 17,2 18,0 17,9 15,0 36 19 54 29 W 1009,9 12 0 0,0
23.06.2017 16:00:00 16,7 15,6 16,4 17,4 18,0 15,0 37 20 58 31 W 1009,5 7 0 0,1
23.06.2017 15:00:00 16,8 16,1 16,7 17,8 18,0 15,0 30 16 48 26 W 1009,2 2,7 0 0,4
23.06.2017 14:00:00 17,0 16,3 16,9 17,9 18,0 15,0 28 15 48 26 W 1008,6 3,3 0 0,0
23.06.2017 13:00:00 17,2 16,1 17,2 18,0 18,1 15,0 24 13 40 22 W 1008,2 9 0 0,0
23.06.2017 12:00:00 17,1 16,0 16,8 17,7 18,1 15,0 22 12 44 24 W 1007,7 7 0 0,0
23.06.2017 11:00:00 17,2 16,3 17,1 18,1 18,1 15,0 26 14 47 26 W 1007,1 6 0 0,0
23.06.2017 10:00:00 17,1 16,4 17,2 18,1 18,1 15,0 29 15 52 28 W 1006,2 3,2 0 0,0
23.06.2017 09:00:00 16,8 16,1 16,6 17,3 18,2 15,0 24 13 43 23 W 1006,0 2,1 0 0,0
23.06.2017 08:00:00 16,8 16,2 16,7 17,4 18,3 15,0 22 12 41 22 W 1005,2 1,9 0 0,1
23.06.2017 07:00:00 17,2 16,0 16,8 17,4 18,4 15,0 16 9 31 17 W 1004,8 3,4 0 0,0
23.06.2017 06:00:00 17,3 16,2 16,8 17,4 18,6 15,0 21 11 31 17 W 1004,2 3,0 0 0,2
23.06.2017 05:00:00 17,5 16,9 17,1 17,5 18,8 15,0 14 7 36 20 WNW 1004,1 2,6 0 1,5
23.06.2017 04:00:00 17,5 16,8 17,1 17,7 18,9 15,0 27 15 47 25 W 1003,6 2,5 0 0,3
23.06.2017 03:00:00 17,7 16,2 16,9 17,6 19,2 15,0 16 9 29 15 ZW 1003,5 16 0 0,0
23.06.2017 02:00:00 18,4 16,6 17,2 18,0 19,4 15,0 14 7 22 12 ZW 1004,1 20 0 0,0
23.06.2017 01:00:00 17,9 17,2 17,4 18,3 19,6 15,0 13 7 25 14 Z 1004,3 8 0 0,0
23.06.2017 00:00:00 18,2 17,3 17,6 18,5 19,9 15,0 21 11 30 16 OZO 1003,5 10 0 0,0
22.06.2017 23:00:00 17,9 17,1 17,5 19,1 20,2 15,0 14 8 19 10 OZO 1005,0 8 0 2,8
22.06.2017 22:00:00 18,6 17,2 17,9 19,9 20,4 15,0 8 4 15 8 OZO 1005,7 16 0 1,9
22.06.2017 21:00:00 19,3 17,0 19,1 20,7 20,6 15,0 8 4 14 8 O 1006,4 17 0 0,0
22.06.2017 20:00:00 20,6 16,8 20,5 22,1 20,7 15,0 5 3 15 8 ZZO 1007,1 41 1 0,0
22.06.2017 19:00:00 21,5 16,5 22,0 23,4 20,6 15,0 9 5 17 9 ZZO 1007,1 39 15 0,0
22.06.2017 18:00:00 21,9 16,0 23,5 25,4 20,2 15,0 13 7 22 12 OZO 1007,3 25 50 0,0
22.06.2017 17:00:00 21,3 15,7 23,5 26,5 19,6 15,0 12 7 22 12 ZZO 1008,4 21 60 0,0
22.06.2017 16:00:00 20,5 15,7 23,8 26,4 18,9 15,0 11 6 21 11 ZZO 1009,1 31 60 0,0
22.06.2017 15:00:00 18,9 15,0 22,3 24,3 18,5 15,0 6 4 25 14 OZO 1009,8 37 43 0,0
22.06.2017 14:00:00 16,0 14,1 16,4 18,1 18,7 14,9 16 8 44 24 Z 1008,2 27 0 0,9
22.06.2017 13:00:00 15,1 13,0 14,4 17,9 18,8 14,9 16 9 24 13 ZW 1013,0 8 0 2,6
22.06.2017 12:00:00 16,2 13,9 15,8 19,5 18,8 14,9 9 5 14 8 ZW 1013,2 4,8 0 0,7
22.06.2017 11:00:00 18,3 11,4 19,8 21,5 18,5 14,9 10 5 15 8 ZW 1012,5 55 0 0,0
22.06.2017 10:00:00 17,7 11,8 19,3 21,0 18,2 14,9 11 6 16 9 ZW 1013,1 65 17 0,0
22.06.2017 09:00:00 18,1 10,9 21,5 21,3 17,9 14,9 11 6 18 10 Z 1013,0 26 55 0,0
22.06.2017 08:00:00 16,9 10,8 20,7 19,1 17,8 14,9 11 6 15 8 ZZW 1013,4 12 60 0,0
22.06.2017 07:00:00 14,6 11,2 16,7 16,7 17,9 14,9 6 4 11 6 ZZW 1014,0 33 16 0,0
22.06.2017 06:00:00 13,5 11,0 13,6 15,8 18,1 14,9 9 5 13 7 ZW 1014,6 23 0 0,0
22.06.2017 05:00:00 13,3 11,1 13,0 15,8 18,3 14,9 6 3 9 5 ZZW 1014,6 21 0 0,0

tt = temperatuur
td = dauwpunt
tt 5cm = temperatuur 5cm
tt -5cm = temperatuur -5cm
tt -20cm = temperatuur -20cm
tt -100cm = temperatuur -100cm
ff = windsnelheid
fx = windstoten
dd = windrichting
ppp = luchtdruk
vv = zicht
sd = Zonneschijnduur
rr = neerslag

Weerstations in de omgeving